sat.trackr.live / text

‹ back to catalog

STARLINK-3701

NORAD 52095 · 2022-029H

PAYLOAD ACTIVE UNKNOWN

§ Identity

Operator
Country
US
Launch date
2022-03-19
Launch site
AFETR
Launch vehicle
Mass (kg)
RCS (m²)

Purposes: comms

External: N2YO · Heavens-Above · Gunter

§ Orbital elements

Epoch: 2026-09-19T16:25:42.913344Z

Period
93.85 min
Inclination
53.1586°
Eccentricity
0.0001125
Mean motion
15.34389300 rev/d
Perigee alt
462.0 km
Apogee alt
463.5 km
Semi-major
6,840.9 km
B*
-1.3412e-5
RAAN
281.4707°
Arg perigee
97.9385°
Mean anomaly
262.1746°
Rev number
25,017

§ Raw data

STARLINK-37011 52095U 22029H   26262.68452446 -.00000829  00000+0 -13412-4 0  99982 52095  53.1586 281.4707 0001125  97.9385 262.1746 15.34389300250179

JSON: /api/v1/satellites/52095 · /tle

For live sub-satellite position, see the globe view (requires WebGL).

§ Visibility from observer

Set your observer location to see the next 7 days of passes ≥ 10°. The values pass through the URL so the page stays shareable.

No JS? Fill the form by hand. The geolocation button needs JavaScript.